Погода в Мари-Отарах

Россия / Республика Марий Эл     55°57′41″N   48°14′06″E
темп.,
°C
ветер,
м/с
пор.,
м/с
влажн.,
%
обл.,
%
осадки,
мм/ч
давл.,
гПа
погр.,
м
20 мая, пт
пт2000:00+2зсз22955 0.0 101018
03:00+1зсз229596 0.0 101015
06:00+4зсз2390100 0.1 1010235
09:00+8сз456764 0.5 10101106
12:00+8ссз666470 0.8 10111460
15:00+7с686892 1.0 10111342
18:00+7ссз477182 0.1 10111018
21:00+3сз4119068 0.4 1011285
21 мая, сб
сб2100:00+1ссз411945 0.0 1010292
03:000ссз4109799 0.0 1010310
06:00+3ссз5987100 0.0 1010733
09:00+5ссз688596 0.2 1009945
12:00+7ссз687297 0.7 10081323
15:00+8с566496 1.3 10081414
18:00+6с3578100 0.5 1008796
21:00+3ссз2390100 0.8 100773
22 мая, вс
вс2200:00+1ссз239568 0.0 100656
03:00−1сз35976 0.0 1005102
06:00+2сз488788 0.0 1004587
09:00+4сз467385 0.3 10021128
12:00+6сз5665100 0.4 10021368
15:00+7сз5658100 0.8 10011437
18:00+6сз4669100 0.3 1000918
21:00+2зсз378895 0.4 1000151
23 мая, пн
пн2300:00+1зсз3896100 0.0 999274
03:00+2зсз4896100 0.0 998682
06:00+3з4897100 0.1 998551
09:00+3з4898100 0.8 998501
12:00+3з479799 0.9 999462
15:00+6зсз567966 1.4 1000971
18:00+6зсз367994 0.3 1000870
21:00+3з3693100 0.4 1001132
24 мая, вт
вт2400:00+3з3696100 0.0 1001234
03:00+3з3693100 0.1 1002422
06:00+2зсз248999 0.0 1003409
09:00+5з3373100 0.3 10041036
12:00+5з3381100 0.6 1006869
15:00+6зсз2371100 1.0 10071073
18:00+6сз2379100 0.6 1008623
21:00+3сз369391 1.0 1009132